• en Suisse
  • Liste des pays
  • À 7 jours
  • Température de l'eau
  • Carte satellitaire
  • Carte météo
  • Widgets météo
  • user-avatar
    Se connecter

    Météo par heure à Igenche

    Ce jour, 24 Septembre, Lundi

    Heure Température Précipitation Vent Pression Humidité
    00:00 +15°C° 0 mm 4 m/s 744 mmHg 84%
    01:00 +14°C° 0 mm 4 m/s 743 mmHg 81%
    02:00 +14°C° 0 mm 5 m/s 743 mmHg 79%
    03:00 +14°C° 0 mm 4 m/s 743 mmHg 80%
    04:00 +13°C° 0 mm 4 m/s 743 mmHg 77%
    05:00 +13°C° 0 mm 5 m/s 742 mmHg 73%
    06:00 +13°C° 0 mm 5 m/s 742 mmHg 70%
    07:00 +14°C° 0 mm 6 m/s 742 mmHg 65%
    08:00 +15°C° 0 mm 6 m/s 742 mmHg 60%
    09:00 +16°C° 0 mm 7 m/s 742 mmHg 54%
    10:00 +17°C° 0 mm 7 m/s 742 mmHg 53%
    11:00 +18°C° 0 mm 7 m/s 743 mmHg 52%
    12:00 +20°C° 0 mm 7 m/s 743 mmHg 51%
    13:00 +20°C° 0 mm 6 m/s 743 mmHg 53%
    14:00 +19°C° 0 mm 6 m/s 743 mmHg 55%
    15:00 +19°C° 0 mm 5 m/s 743 mmHg 57%
    16:00 +17°C° 0 mm 4 m/s 743 mmHg 64%
    17:00 +16°C° 0 mm 3 m/s 744 mmHg 71%
    18:00 +14°C° 0 mm 2 m/s 744 mmHg 78%
    19:00 +13°C° 0 mm 2 m/s 744 mmHg 81%
    20:00 +13°C° 0 mm 1 m/s 744 mmHg 84%
    21:00 +12°C° 0 mm 1 m/s 744 mmHg 87%
    22:00 +12°C° 0 mm 1 m/s 744 mmHg 89%
    23:00 +11°C° 0 mm 1 m/s 744 mmHg 91%

    Demain, 25 Septembre, Mardi

    Heure Température Précipitation Vent Pression Humidité
    00:00 +9°C° 0 mm 2 m/s 744 mmHg 94%
    01:00 +9°C° 0 mm 2 m/s 744 mmHg 94%
    02:00 +9°C° 0 mm 2 m/s 744 mmHg 94%
    03:00 +9°C° 0 mm 2 m/s 743 mmHg 95%
    04:00 +9°C° 0 mm 3 m/s 743 mmHg 94%
    05:00 +9°C° 0 mm 3 m/s 743 mmHg 94%
    06:00 +9°C° 0 mm 3 m/s 743 mmHg 94%
    07:00 +8°C° 0.1 mm 4 m/s 743 mmHg 90%
    08:00 +10°C° 0.1 mm 4 m/s 743 mmHg 86%
    09:00 +11°C° 0.1 mm 4 m/s 743 mmHg 83%
    10:00 +12°C° 0 mm 5 m/s 742 mmHg 78%
    11:00 +13°C° 0 mm 5 m/s 742 mmHg 73%
    12:00 +14°C° 0 mm 6 m/s 742 mmHg 68%
    13:00 +15°C° 0.1 mm 6 m/s 742 mmHg 67%
    14:00 +15°C° 0.1 mm 6 m/s 741 mmHg 66%
    15:00 +15°C° 0.1 mm 6 m/s 741 mmHg 65%
    16:00 +14°C° 0.9 mm 6 m/s 741 mmHg 70%
    17:00 +13°C° 0.9 mm 6 m/s 741 mmHg 76%
    18:00 +11°C° 0.9 mm 6 m/s 741 mmHg 81%
    19:00 +11°C° 0.3 mm 6 m/s 741 mmHg 82%
    20:00 +11°C° 0.3 mm 6 m/s 741 mmHg 83%
    21:00 +11°C° 0.3 mm 6 m/s 741 mmHg 84%
    22:00 +11°C° 0.1 mm 6 m/s 741 mmHg 84%
    23:00 +10°C° 0.1 mm 5 m/s 741 mmHg 84%

    Après-demain, 26 Septembre, Mercredi

    Heure Température Précipitation Vent Pression Humidité
    00:00 +11°C° 0.1 mm 4 m/s 741 mmHg 84%
    01:00 +10°C° 0.1 mm 4 m/s 742 mmHg 85%
    02:00 +10°C° 0.1 mm 4 m/s 742 mmHg 86%
    03:00 +8°C° 0.1 mm 4 m/s 742 mmHg 87%
    04:00 +7°C° 0 mm 4 m/s 743 mmHg 89%
    05:00 +6°C° 0 mm 4 m/s 743 mmHg 90%
    06:00 +6°C° 0 mm 4 m/s 743 mmHg 92%
    07:00 +6°C° 0 mm 4 m/s 744 mmHg 87%
    08:00 +7°C° 0 mm 5 m/s 744 mmHg 83%
    09:00 +8°C° 0 mm 5 m/s 745 mmHg 79%
    10:00 +8°C° 0 mm 5 m/s 745 mmHg 77%
    11:00 +8°C° 0 mm 6 m/s 746 mmHg 75%
    12:00 +9°C° 0 mm 6 m/s 746 mmHg 74%
    13:00 +8°C° 0 mm 5 m/s 746 mmHg 74%
    14:00 +8°C° 0 mm 5 m/s 747 mmHg 74%
    15:00 +8°C° 0 mm 5 m/s 747 mmHg 74%
    16:00 +8°C° 0 mm 4 m/s 747 mmHg 77%
    17:00 +7°C° 0 mm 4 m/s 747 mmHg 80%
    18:00 +8°C° 0 mm 3 m/s 747 mmHg 83%
    19:00 +7°C° 0 mm 3 m/s 747 mmHg 86%
    20:00 +6°C° 0 mm 4 m/s 748 mmHg 88%
    21:00 +5°C° 0 mm 4 m/s 748 mmHg 90%
    22:00 +5°C° 0 mm 4 m/s 748 mmHg 92%
    23:00 +4°C° 0 mm 4 m/s 748 mmHg 93%

    27 Septembre, Jeudi

    Heure Température Précipitation Vent Pression Humidité
    00:00 +4°C° 0 mm 4 m/s 747 mmHg 95%
    01:00 +4°C° 0 mm 4 m/s 747 mmHg 94%
    02:00 +4°C° 0 mm 4 m/s 747 mmHg 94%
    03:00 +3°C° 0 mm 4 m/s 747 mmHg 94%
    04:00 +3°C° 0 mm 4 m/s 747 mmHg 93%
    05:00 +2°C° 0 mm 5 m/s 746 mmHg 92%
    06:00 +2°C° 0 mm 5 m/s 746 mmHg 91%
    07:00 +3°C° 0 mm 6 m/s 746 mmHg 82%
    08:00 +4°C° 0 mm 6 m/s 745 mmHg 74%
    09:00 +5°C° 0 mm 7 m/s 745 mmHg 66%
    10:00 +5°C° 0 mm 8 m/s 745 mmHg 61%
    11:00 +6°C° 0 mm 8 m/s 744 mmHg 57%
    12:00 +7°C° 0 mm 9 m/s 743 mmHg 52%
    13:00 +7°C° 0 mm 9 m/s 743 mmHg 53%
    14:00 +7°C° 0 mm 9 m/s 742 mmHg 55%
    15:00 +7°C° 0 mm 9 m/s 742 mmHg 56%
    16:00 +6°C° 0.3 mm 8 m/s 741 mmHg 62%
    17:00 +5°C° 0.3 mm 8 m/s 741 mmHg 68%
    18:00 +4°C° 0.3 mm 8 m/s 740 mmHg 74%
    19:00 +4°C° 0.5 mm 8 m/s 740 mmHg 78%
    20:00 +4°C° 0.5 mm 7 m/s 739 mmHg 82%
    21:00 +3°C° 0.5 mm 7 m/s 739 mmHg 86%
    22:00 +3°C° 0.2 mm 6 m/s 738 mmHg 87%
    23:00 +3°C° 0.2 mm 6 m/s 738 mmHg 88%

    28 Septembre, Vendredi

    Heure Température Précipitation Vent Pression Humidité
    00:00 +3°C° 0.2 mm 5 m/s 737 mmHg 90%
    01:00 +5°C° 0.2 mm 5 m/s 737 mmHg 90%
    02:00 +5°C° 0.2 mm 5 m/s 737 mmHg 90%
    03:00 +5°C° 0.2 mm 5 m/s 737 mmHg 90%
    04:00 +3°C° 0.2 mm 5 m/s 737 mmHg 91%
    05:00 +3°C° 0.2 mm 5 m/s 738 mmHg 92%
    06:00 +2°C° 0.2 mm 5 m/s 738 mmHg 93%
    07:00 +3°C° 0 mm 5 m/s 738 mmHg 88%
    08:00 +4°C° 0 mm 6 m/s 738 mmHg 84%
    09:00 +5°C° 0 mm 6 m/s 739 mmHg 79%
    10:00 +7°C° 0 mm 6 m/s 739 mmHg 73%
    11:00 +8°C° 0 mm 7 m/s 739 mmHg 67%
    12:00 +9°C° 0 mm 7 m/s 740 mmHg 61%
    13:00 +9°C° 0 mm 6 m/s 739 mmHg 61%
    14:00 +9°C° 0 mm 6 m/s 739 mmHg 60%
    15:00 +10°C° 0 mm 6 m/s 739 mmHg 59%
    16:00 +9°C° 0.2 mm 5 m/s 739 mmHg 66%
    17:00 +8°C° 0.2 mm 5 m/s 739 mmHg 73%
    18:00 +7°C° 0.2 mm 4 m/s 738 mmHg 80%
    19:00 +6°C° 1 mm 4 m/s 737 mmHg 84%
    20:00 +6°C° 1 mm 4 m/s 736 mmHg 88%
    21:00 +7°C° 1 mm 3 m/s 735 mmHg 93%
    22:00 +7°C° 0.8 mm 3 m/s 735 mmHg 93%
    23:00 +6°C° 0.8 mm 4 m/s 735 mmHg 93%

    29 Septembre, Samedi

    Heure Température Précipitation Vent Pression Humidité
    00:00 +6°C° 0.8 mm 4 m/s 734 mmHg 94%
    01:00 +6°C° 0.1 mm 5 m/s 735 mmHg 91%
    02:00 +5°C° 0.1 mm 7 m/s 736 mmHg 88%
    03:00 +5°C° 0.1 mm 8 m/s 737 mmHg 85%
    04:00 +4°C° 0 mm 7 m/s 738 mmHg 86%
    05:00 +3°C° 0 mm 7 m/s 739 mmHg 88%
    06:00 +2°C° 0 mm 6 m/s 740 mmHg 90%
    07:00 +3°C° 0 mm 6 m/s 741 mmHg 87%
    08:00 +3°C° 0 mm 6 m/s 742 mmHg 83%
    09:00 +4°C° 0 mm 6 m/s 744 mmHg 80%
    10:00 +4°C° 0 mm 6 m/s 744 mmHg 74%
    11:00 +5°C° 0 mm 6 m/s 745 mmHg 69%
    12:00 +7°C° 0 mm 5 m/s 746 mmHg 63%
    13:00 +7°C° 0 mm 5 m/s 746 mmHg 62%
    14:00 +7°C° 0 mm 5 m/s 747 mmHg 60%
    15:00 +7°C° 0 mm 4 m/s 747 mmHg 58%
    16:00 +7°C° 0 mm 3 m/s 748 mmHg 63%
    17:00 +5°C° 0 mm 3 m/s 748 mmHg 68%
    18:00 +5°C° 0 mm 2 m/s 748 mmHg 72%
    19:00 +5°C° 0 mm 2 m/s 749 mmHg 73%
    20:00 +6°C° 0 mm 1 m/s 749 mmHg 73%
    21:00 +6°C° 0 mm 1 m/s 749 mmHg 73%
    22:00 +6°C° 0 mm 1 m/s 749 mmHg 73%
    23:00 +6°C° 0 mm 1 m/s 749 mmHg 74%
    Voir plus